Location: The Saddle
(36.8333°N, 80.3417°W)
Time: 02:06:44
(UTC-04:00)

A-11 Canister half - Pass Details

Date: 16 December 2023
Orbit: 1523 x 1684 km, 47.3° (Epoch: 12 September)

Event Time Altitude Azimuth Distance (km) Brightness Sun altitude
Rises 14:55:07 0° 214° (SW) 4,835 13.3 19.2°
Reaches altitude 10° 14:58:17 10° 210° (SSW) 3,871 13.3 18.8°
Maximum altitude 15:07:53 55° 136° (SE) 1,941 9.9 17.6°
Drops below altitude 10° 15:17:40 10° 62° (ENE) 3,951 10.6 16.3°
Sets 15:20:55 0° 58° (ENE) 4,941 11.1 15.9°
